TimeEDT,TemperatureF,Dew PointF,Humidity,Sea Level PressureIn,VisibilityMPH,Wind Direction,Wind SpeedMPH,Gust SpeedMPH,PrecipitationIn,Events,Conditions,WindDirDegrees,DateUTC
12:54 AM,30.9,17.1,57,29.97,10.0,WNW,10.4,19.6,N/A,,Overcast,300,2013-03-23 04:54:00
1:54 AM,30.9,17.1,57,29.97,10.0,West,8.1,-,N/A,,Overcast,280,2013-03-23 05:54:00
2:54 AM,30.9,18.0,59,29.96,10.0,West,9.2,-,N/A,,Overcast,280,2013-03-23 06:54:00
3:54 AM,30.9,18.0,59,29.95,10.0,WNW,8.1,-,N/A,,Overcast,300,2013-03-23 07:54:00
4:54 AM,30.9,19.0,61,29.95,10.0,West,6.9,-,N/A,,Overcast,280,2013-03-23 08:54:00
5:54 AM,30.9,19.0,61,29.95,10.0,West,8.1,-,N/A,,Overcast,280,2013-03-23 09:54:00
6:54 AM,28.9,19.0,67,29.96,10.0,West,8.1,-,N/A,,Clear,270,2013-03-23 10:54:00
7:54 AM,28.9,19.9,69,29.96,10.0,West,8.1,-,N/A,,Partly Cloudy,260,2013-03-23 11:54:00
8:54 AM,33.8,19.4,56,29.95,10.0,West,9.2,-,N/A,,Clear,280,2013-03-23 12:54:00
9:54 AM,36.0,19.0,50,29.96,10.0,West,10.4,17.3,N/A,,Partly Cloudy,280,2013-03-23 13:54:00
10:54 AM,37.0,19.0,48,29.97,10.0,West,11.5,18.4,N/A,,Mostly Cloudy,280,2013-03-23 14:54:00
11:54 AM,37.0,18.0,46,29.96,10.0,WNW,15.0,18.4,N/A,,Overcast,290,2013-03-23 15:54:00
12:54 PM,39.0,18.0,43,29.96,10.0,NW,12.7,-,N/A,,Overcast,320,2013-03-23 16:54:00
1:54 PM,39.9,17.1,40,29.95,10.0,WNW,11.5,23.0,N/A,,Overcast,290,2013-03-23 17:54:00
2:54 PM,41.0,17.1,38,29.94,10.0,West,20.7,28.8,N/A,,Overcast,270,2013-03-23 18:54:00
3:54 PM,41.0,16.0,36,29.94,10.0,WNW,16.1,23.0,N/A,,Overcast,300,2013-03-23 19:54:00
4:54 PM,44.1,17.1,34,29.93,10.0,NW,13.8,20.7,N/A,,Mostly Cloudy,320,2013-03-23 20:54:00
5:54 PM,41.0,16.0,36,29.95,10.0,NW,12.7,20.7,N/A,,Clear,310,2013-03-23 21:54:00
6:54 PM,39.0,15.1,38,29.96,10.0,NNW,16.1,20.7,N/A,,Clear,330,2013-03-23 22:54:00
7:54 PM,37.0,15.1,41,29.99,10.0,NW,9.2,-,N/A,,Mostly Cloudy,310,2013-03-23 23:54:00
8:54 PM,34.0,16.0,48,29.99,10.0,WNW,8.1,-,N/A,,Mostly Cloudy,300,2013-03-24 00:54:00
9:54 PM,33.1,17.1,52,30.00,10.0,WNW,6.9,-,N/A,,Clear,290,2013-03-24 01:54:00
10:54 PM,32.0,18.0,56,30.00,10.0,WNW,5.8,-,N/A,,Overcast,290,2013-03-24 02:54:00
11:54 PM,33.1,18.0,54,30.00,10.0,West,5.8,-,N/A,,Overcast,270,2013-03-24 03:54:00